This demonstration page uses our WeatherBlox Daily Observations layout. Learn more.

Left ArrowRight Arrow

39.01783, -85.05884

Hourly Observations for July 19, 2018

Temp ( °F °C ) Dew Point ( °F °C ) Humidity (%) Winds ( mph kmh ) Pressure ( in mb ) Visibility ( mi km ) Precip ( " mm )
12:52 am 00:52 Mostly Cloudy 73 22.8 56 13.3 55 55 SE 9 15 30.01 1016 10 16 0.00 0.00
1:52 am 01:52 Mostly Clear 72 22.2 57 13.9 59 59 SE 9 15 30.01 1016 10 16 0.00 0.00
2:52 am 02:52 Mostly Clear 71 21.7 57 13.9 61 61 ESE 6 9 30.00 1016 10 16 0.00 0.00
3:52 am 03:52 Mostly Clear 69 20.6 57 13.9 66 66 ESE 8 13 30.00 1016 10 16 0.00 0.00
4:52 am 04:52 Partly Cloudy 69 20.6 57 13.9 66 66 ESE 8 13 29.99 1016 10 16 0.00 0.00
5:52 am 05:52 Mostly Clear 68 20 57 13.9 68 68 ESE 7 11 30.00 1016 10 16 0.00 0.00
6:52 am 06:52 Partly Cloudy 67 19.4 57 13.9 71 71 E 6 9 30.01 1016 10 16 0.00 0.00
7:52 am 07:52 Sunny 70 21.1 58 14.4 66 66 E 8 13 30.02 1017 10 16 0.00 0.00
8:52 am 08:52 Mostly Cloudy 73 22.8 57 13.9 57 57 SE 10 17 30.02 1017 10 16 0.00 0.00
9:52 am 09:52 Cloudy 76 24.4 57 13.9 52 52 SE 13 20 30.03 1017 10 16 0.00 0.00
10:52 am 10:52 Mostly Cloudy 79 26.1 55 12.8 44 44 SE 13 20 30.03 1017 10 16 0.00 0.00
11:52 am 11:52 Mostly Cloudy 80 26.7 54 12.2 41 41 ESE 9 15 30.02 1017 10 16 0.00 0.00
12:52 pm 12:52 Partly Cloudy 80 26.7 53 11.7 39 39 ESE 9 15 30.00 1016 10 16 0.00 0.00
1:52 pm 13:52 Partly Cloudy 84 28.9 54 12.2 36 36 SE 13 20 29.98 1015 10 16 0.00 0.00
2:52 pm 14:52 Partly Cloudy 85 29.4 53 11.7 33 33 ESE 12 19 29.98 1015 10 16 0.00 0.00
3:52 pm 15:52 Mostly Sunny 85 29.4 51 10.6 31 31 ESE 8 13 29.97 1015 10 16 0.00 0.00
4:52 pm 16:52 Partly Cloudy 86 30 52 11.1 31 31 SE 9 15 29.95 1014 10 16 0.00 0.00
5:52 pm 17:52 Partly Cloudy 86 30 50 10 29 29 NNE 6 9 29.93 1014 10 16 0.00 0.00
6:52 pm 18:52 Partly Cloudy 85 29.4 52 11.1 32 32 SE 9 15 29.92 1013 10 16 0.00 0.00
7:52 pm 19:52 Partly Cloudy 83 28.3 52 11.1 34 34 SSE 7 11 29.91 1013 10 16 0.00 0.00
8:52 pm 20:52 Partly Cloudy 77 25 55 12.8 47 47 S 5 7 29.91 1013 10 16 0.00 0.00
9:52 pm 21:52 Mostly Cloudy 75 23.9 55 12.8 50 50 S 6 9 29.92 1013 10 16 0.00 0.00
10:52 pm 22:52 Mostly Cloudy 75 23.9 55 12.8 50 50 Calm 29.92 1013 10 16 0.00 0.00
11:52 pm 23:52 Mostly Cloudy 73 22.8 57 13.9 57 57 SSE 6 9 29.91 1013 10 16 0.00 0.00

Powered by AerisWeather